Location: *
(34.0486°S, 61.7880°E)
Time: 13:33:10
(UTC+00:00)

Cosmos 1536 Rocket - Pass Details

Date: 01 April 2020
Orbit: 605 x 633 km, 82.5° (Epoch: 04 June)

Event Time Altitude Azimuth Distance (km) Brightness Sun altitude
Rises 14:06:38 0° 5° (N) 2,852 7.0 -4.8°
Reaches altitude 10° 14:08:51 10° 8° (N) 1,955 6.1 -5.3°
Maximum altitude 14:13:05 57° 86° (E) 727 3.6 -6.1°
Drops below altitude 10° 14:17:24 10° 164° (SSE) 1,984 6.0 -7.0°
Sets 14:19:40 0° 168° (SSE) 2,899 6.9 -7.5°
